Temperature
16 15 15 16 15 16 16 15 14 15 16 16 15 15 15 15 15 14 15 16 16 15 15 14 14 14 14 14 14 13 13 12 12 12 11 11 11 12 11 11 11 11 11 11
14 15 16 16 17 16 16 15 14 15 15 15 15 14 15 15 14 15 15 16 16 15 14 14 14 14 14 14 13 13 13 12 11 11 11 11 11 11 11 11 11 11 11 11
15 16 17 17 16 15 15 15 14 13 13 14 14 14 14 15 14 15 15 16 16 15 14 13 14 14 14 13 13 12 12 11 10 10 10 10 10 11 11 11 11 11 11 11
15 16 17 16 15 15 14 14 14 13 13 12 14 12 15 15 14 12 13 14 16 14 14 13 13 13 13 13 12 11 11 11 10 10 10 10 9 9 10 10 10 10 10 10
15 16 16 16 15 15 14 13 13 13 12 11 11 12 12 14 14 12 11 13 15 14 13 13 13 13 13 12 11 11 11 10 10 10 9 9 9 9 9 9 9 9 9 9
14 15 14 14 14 14 14 13 12 10 10 11 11 11 11 12 14 12 11 13 14 14 13 13 13 13 13 12 11 10 10 10 10 9 9 9 9 9 9 9 9 9 9 9
13 13 13 14 14 13 12 12 10 11 11 12 11 11 11 12 11 10 10 13 14 13 13 13 13 13 12 11 11 10 10 10 10 9 9 9 9 9 9 9 9 9 8 8
11 11 13 13 14 13 12 11 11 10 10 11 12 10 11 11 10 10 12 13 13 12 13 13 13 12 11 11 11 10 10 10 10 9 9 9 8 8 8 8 8 8 8 8
11 11 12 13 12 12 11 11 11 10 9 8 10 11 12 11 11 10 10 11 12 12 12 12 12 12 12 11 11 10 10 10 9 9 8 8 8 8 8 8 8 8 8 7
11 8 11 12 12 12 10 11 6 9 8 7 9 9 11 12 12 11 11 11 12 12 12 12 12 12 12 11 11 10 10 9 9 8 8 8 8 8 7 7 7 7 7 7
11 9 9 10 10 10 10 9 9 8 8 9 9 10 11 12 11 10 10 12 13 13 13 12 12 12 12 11 10 10 9 9 9 8 7 7 7 7 7 7 7 7 7 7
11 8 7 8 9 9 9 9 8 7 8 7 8 10 12 10 10 10 10 12 12 12 12 11 11 12 11 11 10 9 9 9 9 8 7 7 6 6 6 6 6 6 6 6
9 8 7 8 8 9 8 9 9 8 7 7 7 8 10 8 9 10 11 12 12 12 12 12 11 11 11 11 9 8 8 9 8 7 6 6 6 5 5 5 5 5 5 4
8 7 8 8 8 9 7 8 8 7 7 6 7 8 9 9 9 10 11 11 12 12 11 12 11 10 10 9 8 8 8 7 7 7 6 5 5 4 4 3 3 2 2 2
6 5 6 7 7 7 7 7 7 7 7 6 7 7 7 4 4 5 6 7 10 11 11 11 10 8 8 7 7 7 6 7 6 5 5 4 3 2 2 1 1 -0 -1 -1
5 4 5 4 6 6 5 6 6 6 6 6 6 5 2 3 4 4 3 4 6 10 10 9 7 7 7 7 6 6 5 5 5 4 3 2 2 1 0 -1 -3 -3 -2 -2
2 3 3 2 5 4 3 5 6 6 6 5 4 3 1 3 4 4 3 2 3 7 8 7 5 4 4 5 4 4 4 4 3 3 2 1 -1 -1 -3 -4 -4 -4 -4 -3
2 2 3 2 3 2 5 7 6 5 6 3 3 3 3 3 3 3 3 2 2 3 4 5 4 4 4 4 4 3 3 2 1 -0 -1 -2 -3 -3 -4 -5 -5 -4 -4 -4
2 2 2 0 1 2 4 5 4 4 3 3 2 3 4 3 3 4 3 3 3 3 2 1 0 1 3 3 3 3 1 0 -1 -2 -2 -3 -4 -4 -5 -5 -5 -5 -4 -4
2 2 0 -2 -1 -1 3 5 5 3 1 3 2 4 4 3 2 5 4 4 4 4 3 2 1 1 1 2 2 0 -0 -1 -2 -2 -3 -4 -4 -5 -6 -6 -6 -5 -5 -5
0 0 -1 -1 -2 -0 3 4 4 2 2 4 4 4 4 2 3 5 5 4 4 3 2 1 0 -0 -0 -1 -1 -1 -2 -3 -3 -4 -4 -5 -5 -6 -6 -6 -6 -6 -6 -6
-1 -1 -1 -1 -2 -2 3 2 1 3 4 4 4 4 4 4 4 4 5 5 4 3 2 1 -0 -1 -2 -4 -4 -3 -3 -4 -5 -5 -5 -5 -6 -7 -7 -7 -7 -7 -7 -7
-1 0 -1 0 1 3 4 3 4 4 3 3 3 3 3 3 4 5 5 5 4 2 0 -1 -2 -3 -4 -5 -5 -4 -5 -5 -5 -6 -6 -7 -8 -8 -8 -8 -8 -8 -8 -8
-0 1 0 1 1 3 3 3 3 3 2 2 2 2 3 3 4 4 3 3 3 1 -1 -2 -3 -4 -5 -6 -6 -6 -5 -6 -6 -7 -8 -8 -8 -8 -9 -9 -9 -9 -9 -9
1 -0 -0 0 2 2 3 3 2 2 1 -0 -0 0 1 2 2 3 3 2 1 -1 -2 -3 -4 -5 -6 -6 -7 -7 -6 -7 -8 -8 -9 -9 -9 -9 -9 -9 -9 -9 -10 -11
0 -0 -1 1 2 2 2 2 0 -1 -2 -2 -2 -2 -1 -0 -0 0 2 1 -1 -2 -4 -5 -6 -6 -7 -7 -7 -7 -7 -8 -9 -9 -9 -9 -9 -9 -9 -9 -9 -9 -10 -10
Wind_Speed
1 1 3 4 4 4 3 5 8 8 6 6 12 13 14 10 11 13 12 12 13 11 7 7 8 9 8 7 7 6 6 7 5 3 3 3 4 3 3 4 5 5 4 4
4 2 5 3 2 3 3 6 8 8 7 7 12 15 16 13 12 16 16 14 12 9 7 8 7 7 7 5 4 5 6 6 4 2 1 1 2 2 2 3 4 4 5 5
1 3 1 3 4 6 5 4 6 9 9 7 11 11 8 8 5 8 11 10 12 13 12 9 7 7 7 5 2 3 4 5 5 5 3 3 3 3 4 4 4 5 4 4
1 2 2 3 3 4 4 3 6 9 10 5 5 10 2 4 6 7 11 11 12 11 11 11 9 8 7 5 4 1 2 4 4 6 5 4 2 2 3 3 5 6 5 4
5 3 2 2 1 2 5 5 7 7 5 5 4 6 7 5 8 10 12 11 11 13 13 12 11 10 9 7 6 4 1 1 2 4 4 3 2 2 3 3 5 6 6 5
4 4 3 2 2 2 4 5 6 2 2 3 5 5 8 5 6 9 9 9 11 11 11 11 9 8 7 6 5 4 3 4 3 2 3 3 4 5 4 5 5 5 5 5
7 5 4 4 4 5 6 6 6 7 2 5 2 4 9 8 7 9 12 12 10 9 10 10 9 8 7 7 7 6 6 6 4 4 4 4 5 5 6 6 4 4 4 4
5 5 3 3 2 4 3 2 1 4 6 9 7 8 7 6 7 8 7 3 8 8 9 9 10 9 9 9 8 8 7 4 3 5 6 5 4 3 3 4 3 4 4 5
4 5 5 3 2 0 2 3 2 2 5 7 7 7 9 5 7 8 5 4 7 6 6 7 9 10 10 9 8 7 6 2 1 4 5 6 5 4 4 6 5 5 5 6
2 7 6 4 4 3 3 2 3 2 4 7 10 8 9 12 5 5 3 2 4 5 7 9 10 9 9 7 5 4 4 4 3 5 5 5 7 8 8 8 8 8 8 8
3 4 6 5 5 6 0 1 3 5 6 9 16 11 4 4 6 10 10 9 8 7 8 10 11 10 9 7 6 5 4 6 7 7 7 9 10 10 10 9 9 9 9 10
2 1 7 9 10 2 5 6 6 4 9 9 11 17 9 10 12 13 11 9 6 6 8 9 13 12 7 7 7 5 6 7 8 7 7 8 8 8 9 9 9 10 10 10
6 3 8 9 7 3 2 3 4 3 8 16 18 16 10 10 10 10 10 10 11 10 10 12 13 12 10 8 7 5 7 8 7 7 7 7 7 7 7 7 8 10 10 11
7 4 11 15 18 17 18 11 11 12 13 19 22 26 25 22 17 19 20 24 23 15 12 14 8 7 8 9 7 6 7 6 7 8 7 6 6 7 7 7 7 9 11 11
4 4 9 11 13 19 24 21 18 18 21 21 27 28 20 17 19 20 23 24 22 14 12 10 6 10 10 9 7 6 6 7 8 6 5 4 4 5 7 7 7 8 10 10
3 6 12 19 10 18 23 21 20 18 17 16 18 14 13 18 17 19 25 25 25 16 6 5 7 11 10 8 6 6 6 5 4 4 4 5 5 6 7 9 9 8 8 9
4 4 3 9 15 17 12 7 10 10 9 7 7 3 9 18 19 15 16 23 26 12 7 11 10 8 7 6 5 5 4 4 5 6 6 5 5 7 7 8 9 8 8 7
5 3 3 6 9 9 10 21 10 8 12 8 9 8 11 13 14 14 6 9 17 14 12 9 6 5 4 4 6 6 6 6 6 6 6 6 6 6 7 8 8 9 8 8
8 5 3 3 6 13 15 12 6 11 15 9 9 11 13 11 11 6 3 1 1 5 7 6 4 1 4 6 5 6 6 6 6 6 6 6 6 6 6 7 8 8 7 7
2 1 3 3 5 8 14 15 6 3 11 7 7 15 13 8 9 10 5 8 10 10 10 8 5 1 3 4 5 5 5 7 7 7 7 6 7 7 6 6 7 7 7 7
5 5 6 9 8 10 15 13 4 7 14 10 13 12 15 11 18 16 10 10 10 8 7 8 7 5 3 3 4 5 7 7 7 7 6 6 7 7 5 6 7 6 6 7
5 5 4 4 5 9 7 10 8 18 21 19 18 19 17 16 20 19 14 10 10 10 10 9 7 6 6 4 4 5 6 6 7 7 6 6 7 7 7 6 6 6 6 6
6 7 5 8 11 17 23 23 23 20 21 23 21 18 12 16 17 13 10 7 11 10 8 8 8 7 6 4 4 5 5 6 6 6 6 6 6 7 7 6 6 5 5 5
6 7 9 14 22 24 23 26 23 21 22 23 21 20 20 16 14 11 8 6 10 10 9 9 8 7 5 5 6 4 5 6 5 5 5 5 6 7 7 6 5 5 5 5
12 8 11 15 24 27 23 23 28 28 27 25 25 25 19 11 9 7 5 3 7 8 8 7 7 6 5 5 5 5 6 6 4 4 5 5 5 5 5 5 5 5 5 5
6 8 8 16 22 26 32 32 29 26 25 25 26 24 20 18 17 12 3 8 8 8 8 7 7 5 4 5 5 5 6 5 4 4 5 4 4 4 4 4 6 8 9 11
Wind_Direction
12 47 278 255 211 240 258 266 274 275 287 278 266 267 271 245 230 238 228 214 206 200 187 158 145 134 111 63 35 19 8 356 355 1 5 346 325 325 321 308 298 297 306 319
23 274 240 236 300 310 303 303 303 298 335 324 282 268 256 240 228 227 220 214 202 184 170 174 153 120 104 93 46 18 12 4 4 350 314 273 298 325 340 348 354 336 305 293
222 266 311 11 5 359 331 315 308 300 315 305 311 285 242 260 242 242 229 206 188 183 174 170 154 140 125 109 79 22 8 15 22 18 6 2 358 351 356 353 348 343 336 328
293 301 4 14 15 27 304 314 291 291 310 311 7 298 225 271 293 267 240 211 191 181 172 169 163 159 150 154 168 141 19 17 20 30 36 25 354 313 308 308 317 325 341 351
301 315 334 350 308 314 267 288 276 273 264 289 241 244 292 320 293 277 251 223 202 187 177 173 174 168 158 162 180 192 204 341 7 20 27 14 325 275 283 297 318 321 322 333
279 334 21 353 312 307 324 319 302 7 74 268 230 223 285 275 285 295 282 239 212 189 181 178 176 157 155 169 197 207 214 243 256 302 324 326 294 289 300 309 317 314 307 307
338 355 349 352 346 339 22 6 345 344 326 258 255 263 256 271 292 281 276 244 214 189 180 173 168 165 174 194 212 213 213 240 263 292 294 293 291 288 294 291 285 302 301 298
3 312 318 333 314 299 326 105 197 279 275 289 286 253 261 273 303 316 310 237 170 183 187 182 182 182 194 205 209 209 212 237 302 303 294 285 284 281 279 274 278 276 271 281
353 285 307 301 295 298 317 230 214 266 289 288 267 283 298 306 344 356 6 110 146 185 215 218 209 204 204 206 203 201 186 166 320 321 303 296 317 330 316 305 298 289 287 282
5 297 286 307 317 262 183 278 342 294 280 273 278 283 272 285 315 304 284 177 176 232 245 237 233 226 216 205 187 170 140 114 51 14 360 4 10 6 358 356 347 340 330 328
312 263 298 317 268 256 183 249 233 250 249 264 280 274 243 268 284 273 254 230 222 237 255 257 252 235 212 182 156 134 100 79 59 40 31 36 30 25 23 19 6 354 350 349
313 289 276 261 264 191 187 213 200 230 277 269 271 274 301 292 289 286 266 238 243 255 263 261 254 238 201 163 137 123 102 85 66 51 43 41 37 28 19 5 354 349 347 342
334 324 313 306 310 327 235 194 188 232 268 276 275 279 292 310 308 290 271 259 257 267 284 285 274 226 177 147 126 111 81 70 65 59 52 40 25 16 2 350 342 342 334 322
325 247 242 264 286 300 293 290 295 291 278 283 278 283 290 303 315 305 294 286 281 276 277 287 271 176 139 117 108 88 75 72 66 56 50 34 19 0 346 337 338 341 331 325
8 284 276 278 293 297 294 299 295 284 276 274 279 283 305 344 338 325 316 312 297 272 283 289 177 137 116 100 86 76 73 65 61 63 61 37 14 355 342 333 338 336 330 332
5 295 312 301 288 287 294 295 291 285 289 294 294 297 350 332 326 339 337 333 321 295 340 15 123 117 108 101 88 75 67 67 73 69 49 24 14 4 355 345 346 337 323 322
247 245 257 286 304 303 292 297 310 308 306 292 273 242 326 326 318 322 329 329 320 314 96 90 69 64 68 69 91 96 79 54 47 36 24 15 3 6 355 349 345 332 323 326
203 176 222 288 310 282 313 318 289 278 286 244 237 262 290 291 286 286 306 6 354 12 32 42 82 101 105 101 74 61 56 49 45 24 7 2 5 351 356 354 344 339 342 350
175 177 241 250 263 292 305 282 289 309 296 235 229 273 281 275 284 278 231 140 138 65 42 18 2 20 76 65 73 77 63 54 41 15 356 350 348 334 349 355 344 345 352 10
25 143 213 257 274 272 266 283 299 290 280 222 246 308 297 277 291 297 215 218 220 199 177 171 160 109 56 62 69 73 58 40 21 357 343 346 346 329 340 5 354 352 7 16
334 300 267 265 253 256 266 287 325 276 288 304 300 292 298 274 273 283 279 243 206 188 166 149 139 121 76 38 70 75 52 25 353 342 346 350 346 332 3 19 14 6 14 14
266 267 266 250 256 271 268 313 284 289 299 298 293 293 290 281 278 276 272 249 182 168 159 153 139 115 77 36 47 65 44 6 347 350 358 353 347 350 8 23 17 14 8 9
237 217 244 244 254 275 290 293 288 290 289 289 286 286 277 287 271 262 268 211 174 159 149 141 131 113 101 77 47 57 25 1 355 1 359 354 355 10 8 8 12 8 4 352
259 245 263 279 275 281 291 291 291 289 287 287 284 279 285 276 261 282 285 183 162 150 142 136 131 124 112 85 57 27 24 6 2 7 358 4 12 21 12 6 4 6 357 342
270 263 263 269 285 294 289 291 296 300 306 301 292 286 279 257 265 271 292 188 137 113 106 118 117 105 103 86 59 18 24 16 4 9 8 15 27 19 5 358 357 360 346 343
234 234 257 285 295 298 296 302 315 317 309 299 289 279 274 273 275 281 102 110 114 111 107 101 98 106 105 81 54 22 20 17 13 21 19 13 24 9 5 356 355 1 360 357
Height
1503 1508 1510 1506 1505 1505 1505 1506 1506 1498 1488 1487 1484 1480 1474 1470 1469 1466 1465 1465 1465 1468 1472 1473 1473 1473 1475 1476 1477 1475 1473 1471 1469 1469 1468 1467 1467 1466 1464 1464 1463 1462 1462 1461
1508 1510 1504 1501 1501 1502 1503 1505 1503 1493 1486 1485 1480 1474 1465 1461 1459 1457 1458 1459 1462 1466 1468 1468 1469 1470 1471 1472 1472 1472 1470 1468 1466 1466 1466 1466 1466 1465 1464 1463 1463 1462 1461 1459
1508 1505 1500 1501 1503 1505 1504 1505 1504 1501 1492 1485 1482 1467 1460 1454 1454 1453 1453 1454 1457 1459 1461 1464 1467 1468 1469 1469 1469 1468 1466 1465 1464 1464 1463 1464 1464 1464 1463 1462 1461 1460 1459 1458
1505 1501 1500 1501 1504 1505 1508 1501 1500 1497 1497 1497 1490 1488 1460 1456 1454 1452 1449 1448 1450 1455 1458 1459 1463 1466 1467 1468 1468 1468 1465 1465 1464 1462 1462 1461 1462 1462 1462 1461 1460 1459 1458 1456
1508 1503 1502 1504 1505 1502 1502 1498 1496 1493 1496 1498 1492 1493 1471 1459 1456 1450 1444 1444 1447 1450 1452 1455 1459 1462 1463 1465 1466 1465 1464 1464 1462 1461 1461 1461 1461 1460 1459 1459 1458 1458 1457 1455
1508 1503 1503 1504 1502 1501 1499 1498 1496 1498 1500 1502 1492 1492 1478 1463 1455 1450 1444 1442 1444 1448 1451 1454 1456 1459 1461 1462 1463 1462 1461 1462 1460 1459 1459 1459 1459 1458 1457 1455 1455 1455 1454 1453
1514 1508 1505 1504 1504 1502 1503 1507 1512 1506 1500 1494 1489 1490 1476 1458 1454 1451 1444 1439 1442 1446 1449 1451 1453 1455 1458 1459 1460 1460 1459 1459 1458 1457 1456 1456 1455 1454 1453 1452 1451 1450 1451 1449
1526 1525 1509 1506 1506 1508 1506 1510 1518 1519 1508 1492 1482 1487 1468 1456 1451 1447 1442 1438 1440 1444 1446 1448 1451 1454 1456 1456 1456 1457 1455 1454 1454 1455 1454 1452 1451 1449 1449 1448 1447 1447 1447 1445
1526 1522 1509 1506 1505 1506 1511 1509 1507 1512 1507 1508 1487 1472 1461 1454 1452 1449 1444 1441 1442 1446 1448 1450 1451 1452 1452 1453 1453 1453 1450 1450 1451 1451 1450 1448 1447 1446 1445 1444 1443 1442 1442 1441
1524 1529 1513 1508 1506 1503 1509 1507 1523 1514 1518 1509 1486 1481 1469 1456 1453 1450 1447 1445 1444 1447 1449 1449 1449 1449 1449 1449 1449 1449 1447 1447 1447 1446 1445 1442 1441 1441 1439 1438 1437 1437 1436 1435
1522 1527 1520 1512 1509 1507 1509 1510 1510 1512 1508 1502 1490 1475 1461 1456 1454 1451 1447 1445 1443 1444 1446 1447 1446 1445 1445 1444 1445 1446 1444 1442 1442 1442 1440 1438 1437 1437 1435 1434 1433 1431 1429 1428
1521 1526 1524 1514 1502 1500 1503 1505 1506 1512 1503 1500 1490 1474 1456 1454 1451 1447 1443 1440 1440 1440 1440 1441 1442 1441 1440 1439 1440 1441 1438 1437 1437 1437 1437 1435 1434 1431 1429 1427 1426 1424 1421 1420
1526 1526 1524 1508 1507 1503 1502 1502 1500 1502 1499 1493 1488 1472 1458 1457 1451 1447 1443 1439 1435 1432 1432 1431 1429 1430 1431 1431 1434 1433 1431 1433 1434 1433 1431 1430 1427 1424 1422 1420 1418 1415 1413 1412
1525 1525 1521 1516 1507 1501 1498 1501 1499 1500 1496 1488 1481 1470 1461 1456 1456 1450 1446 1439 1430 1424 1421 1419 1417 1419 1421 1423 1426 1427 1427 1428 1427 1427 1425 1423 1419 1417 1414 1412 1409 1407 1406 1403
1525 1526 1516 1511 1509 1502 1496 1496 1495 1492 1485 1485 1473 1466 1466 1471 1465 1455 1445 1433 1423 1417 1415 1412 1411 1413 1414 1417 1421 1423 1422 1422 1422 1421 1418 1416 1412 1410 1408 1406 1404 1403 1402 1399
1527 1528 1521 1508 1508 1503 1497 1492 1489 1483 1476 1475 1471 1469 1477 1471 1462 1451 1442 1432 1423 1413 1409 1408 1407 1408 1410 1413 1417 1419 1418 1417 1416 1414 1411 1408 1406 1405 1403 1401 1401 1401 1399 1396
1530 1528 1527 1519 1505 1501 1501 1488 1484 1479 1474 1474 1471 1471 1467 1463 1457 1449 1443 1437 1425 1412 1409 1405 1411 1412 1412 1412 1414 1414 1413 1411 1409 1408 1406 1405 1403 1401 1399 1399 1400 1399 1396 1393
1524 1525 1524 1520 1511 1511 1490 1480 1477 1476 1469 1469 1466 1463 1458 1455 1450 1444 1439 1434 1428 1419 1416 1415 1414 1416 1414 1412 1410 1409 1408 1407 1406 1405 1405 1403 1401 1399 1397 1398 1399 1397 1394 1392
1516 1521 1523 1526 1515 1502 1491 1474 1473 1473 1468 1461 1462 1458 1453 1448 1443 1437 1434 1429 1428 1425 1422 1421 1420 1416 1411 1408 1406 1406 1406 1404 1403 1402 1402 1401 1399 1397 1396 1396 1397 1395 1393 1391
1517 1517 1524 1528 1526 1519 1484 1469 1469 1472 1469 1456 1457 1452 1447 1444 1440 1430 1427 1425 1422 1420 1417 1417 1417 1414 1410 1407 1406 1405 1403 1401 1400 1399 1399 1398 1396 1395 1394 1394 1393 1392 1390 1389
1526 1522 1522 1520 1521 1498 1477 1468 1469 1474 1464 1455 1451 1447 1444 1440 1433 1425 1420 1417 1414 1414 1414 1412 1411 1409 1408 1407 1404 1402 1399 1399 1399 1398 1397 1396 1395 1394 1393 1391 1390 1388 1386 1386
1527 1526 1519 1515 1514 1500 1469 1471 1473 1464 1453 1449 1443 1439 1435 1429 1423 1418 1416 1414 1409 1407 1407 1406 1406 1405 1402 1402 1402 1399 1397 1397 1397 1396 1395 1394 1393 1392 1390 1388 1387 1386 1383 1382
1518 1513 1509 1502 1491 1472 1465 1464 1457 1453 1448 1441 1437 1429 1426 1423 1418 1413 1411 1408 1404 1403 1403 1403 1401 1399 1398 1399 1401 1398 1395 1395 1395 1394 1393 1392 1390 1389 1387 1386 1384 1383 1381 1379
1506 1502 1500 1490 1475 1466 1461 1452 1448 1444 1438 1432 1428 1423 1418 1414 1411 1407 1405 1403 1399 1397 1397 1397 1397 1396 1396 1396 1397 1397 1393 1393 1392 1392 1391 1388 1387 1386 1384 1384 1382 1380 1379 1377
1497 1498 1492 1483 1469 1457 1454 1447 1438 1431 1426 1420 1415 1411 1408 1405 1402 1400 1397 1396 1395 1394 1394 1394 1393 1394 1395 1394 1395 1395 1392 1391 1391 1389 1388 1386 1385 1384 1383 1381 1379 1378 1377 1375
1490 1488 1486 1476 1468 1458 1440 1432 1428 1422 1414 1406 1398 1392 1392 1393 1393 1393 1391 1390 1391 1392 1392 1392 1392 1393 1395 1393 1393 1392 1389 1388 1389 1388 1386 1385 1384 1383 1382 1380 1378 1376 1375 1372